This is the latest recevied weather packets stored in our database for station/object W3SN-13. If no packets are shown the sender has not sent any weather packets the latest 10 day(s).
| Time | Temp. | Humidity | Pressure | Rain* | Wind** | Luminosity | Snow |
|---|---|---|---|---|---|---|---|
| 1788039049 | 36.11° C | 31% | 1012.1 hPa | 0 mm | - | - | - |
| 1788038447 | 35.56° C | 36% | 1012.3 hPa | 0 mm | - | - | - |
| 1788037845 | 35.56° C | 38% | 1012.5 hPa | 0 mm | - | - | - |
| 1788037244 | 36.11° C | 37% | 1012.5 hPa | 0 mm | - | - | - |
| 1788036643 | 36.11° C | 37% | 1012.5 hPa | 0 mm | - | - | - |
| 1788036041 | 36.11° C | 37% | 1012.6 hPa | 0 mm | - | - | - |
| 1788035440 | 36.11° C | 36% | 1012.5 hPa | 0 mm | - | - | - |
| 1788034838 | 36.11° C | 35% | 1012.7 hPa | 0 mm | - | - | - |
| 1788034237 | 36.11° C | 34% | 1012.7 hPa | 0 mm | - | - | - |
| 1788033636 | 35.56° C | 35% | 1012.9 hPa | 0 mm | - | - | - |
| 1788033032 | 35.56° C | 36% | 1012.9 hPa | 0 mm | - | - | - |
| 1788032430 | 35.56° C | 36% | 1013.1 hPa | 0 mm | - | - | - |
| 1788031828 | 35° C | 35% | 1013.1 hPa | 0 mm | - | - | - |
| 1788031227 | 34.44° C | 34% | 1013.3 hPa | 0 mm | - | - | - |
| 1788030625 | 34.44° C | 34% | 1013.4 hPa | 0 mm | - | - | - |
| 1788030024 | 34.44° C | 34% | 1013.4 hPa | 0 mm | - | - | - |
| 1788029423 | 35° C | 34% | 1013.5 hPa | 0 mm | - | - | - |
| 1788028821 | 34.44° C | 33% | 1013.6 hPa | 0 mm | - | - | - |
| 1788028220 | 33.89° C | 36% | 1013.9 hPa | 0 mm | - | - | - |
| 1788027618 | 33.89° C | 36% | 1013.9 hPa | 0 mm | - | - | - |
| 1788027017 | 33.89° C | 36% | 1013.9 hPa | 0 mm | - | - | - |
| 1788026415 | 33.33° C | 39% | 1014 hPa | 0 mm | - | - | - |
| 1788025814 | 33.33° C | 38% | 1014 hPa | 0 mm | - | - | - |
| 1788025213 | 32.78° C | 42% | 1014.1 hPa | 0 mm | - | - | - |
| 1788024611 | 33.33° C | 42% | 1014.3 hPa | 0 mm | - | - | - |
* Rain latest hour (hover to see other rain measurements)
** Current wind speed in m/s (hover to see current wind gust speed)